Change the Weather History Date:

Thursday, October 13, 2011

  Actual Average Record
Temperature  
Mean Temperature 64 °F 61 °F  
Max Temperature 73 °F 74 °F 82 °F (2013)
Min Temperature 57 °F 49 °F 33 °F (2000)
Degree Days  
Heating Degree Days 1 5  
Month to date heating degree days 46  
Since 1 July heating degree days 64  
Cooling Degree Days 0 1  
Month to date cooling degree days 23  
Year to date cooling degree days 1495  
Growing Degree Days 14 (Base 50)    
Moisture  
Dew Point 59 °F    
Average Humidity 86    
Maximum Humidity 100    
Minimum Humidity 57    
Precipitation  
Precipitation 0.39 in 0.08 in 2.30 in (1982)
Month to date precipitation 1.56  
Year to date precipitation 39.77  
Sea Level Pressure  
Sea Level Pressure 29.70 in    
Wind  
Wind Speed 2 mph (North)    
Max Wind Speed 8 mph    
Max Gust Speed -    
Visibility 8 miles    
Events Rain , Thunderstorm    
T = Trace of Precipitation, MM = Missing Value Source: NWS Daily Summary

Daily Weather History Graph

Daily Weather History Graph

Search for Another Location

Airport or City:

Trip Planner

Search our weather history database for the weather conditions in past years. The results will help you decide how hot, cold, wet, or windy it might be!

Date:

Astronomy

Oct. 13, 2011 Rise Set
Actual Time 7:42 AM EDT 7:08 PM EDT
Civil Twilight 7:17 AM EDT 7:33 PM EDT
Nautical Twilight 6:48 AM EDT 8:02 PM EDT
Astronomical Twilight 6:19 AM EDT 8:31 PM EDT
Moon 7:50 PM EDT (10/13) 9:06 AM EDT (10/13)
Length of Visible Light 12h 15m
Length of Day
11h 25m
Full, 98% of the Moon is Illuminated
Oct 13
Full
Oct 19
Last Quarter
Oct 26
New
Nov 2
First Quarter
Nov 10
Full

Hourly Weather History & Observations

Time (EDT) Temp. Dew Point Humidity Pressure Visibility Wind Dir Wind Speed Gust Speed Precip Events Conditions
12:22 AM 64.4 °F 60.8 °F 88% 29.81 in 10.0 mi Calm Calm - N/A   Overcast
12:53 AM 63.0 °F 61.0 °F 93% 29.77 in 10.0 mi Calm Calm - N/A   Overcast
1:26 AM 64.4 °F 60.8 °F 88% 29.79 in 10.0 mi Calm Calm - N/A   Overcast
1:50 AM 62.6 °F 60.8 °F 94% 29.78 in 6.0 mi Variable 4.6 mph - N/A   Overcast
1:53 AM 63.0 °F 61.0 °F 93% 29.76 in 4.0 mi Variable 4.6 mph - N/A   Overcast
2:13 AM 62.6 °F 60.8 °F 94% 29.78 in 8.0 mi Calm Calm - 0.00 in   Overcast
2:53 AM 62.1 °F 60.1 °F 93% 29.73 in 8.0 mi Calm Calm - 0.00 in   Overcast
3:53 AM 62.1 °F 60.1 °F 93% 29.72 in 8.0 mi Calm Calm - N/A   Overcast
4:53 AM 61.0 °F 60.1 °F 97% 29.71 in 7.0 mi Calm Calm - N/A   Overcast
5:51 AM 62.6 °F 59.0 °F 88% 29.73 in 8.0 mi Calm Calm - N/A   Overcast
5:53 AM 62.1 °F 59.0 °F 90% 29.71 in 8.0 mi Calm Calm - N/A   Overcast
6:05 AM 62.6 °F 59.0 °F 88% 29.73 in 8.0 mi Calm Calm - N/A   Overcast
6:44 AM 62.6 °F 60.8 °F 94% 29.73 in 8.0 mi Calm Calm - N/A   Overcast
6:53 AM 62.1 °F 60.1 °F 93% 29.70 in 8.0 mi South 4.6 mph - N/A   Overcast
7:44 AM 62.6 °F 60.8 °F 94% 29.72 in 9.0 mi Calm Calm - N/A   Overcast
7:53 AM 62.1 °F 60.1 °F 93% 29.69 in 10.0 mi South 5.8 mph - N/A   Overcast
8:53 AM 63.0 °F 60.1 °F 90% 29.69 in 10.0 mi South 4.6 mph - N/A   Overcast
10:02 AM 66.2 °F 60.8 °F 83% 29.72 in 10.0 mi SSW 8.1 mph - N/A   Overcast
10:53 AM 68.0 °F 60.1 °F 76% 29.68 in 10.0 mi Calm Calm - 0.00 in   Mostly Cloudy
11:46 AM 69.8 °F 57.2 °F 64% 29.70 in 10.0 mi Variable 6.9 mph - N/A   Scattered Clouds
11:53 AM 71.1 °F 59.0 °F 66% 29.68 in 10.0 mi Variable 6.9 mph - N/A   Scattered Clouds
12:53 PM 70.0 °F 57.0 °F 63% 29.67 in 10.0 mi Variable 4.6 mph - N/A   Scattered Clouds
1:53 PM 71.1 °F 55.9 °F 59% 29.64 in 10.0 mi Variable 4.6 mph - N/A   Clear
2:53 PM 71.1 °F 55.0 °F 57% 29.62 in 10.0 mi Variable 6.9 mph - N/A   Scattered Clouds
3:53 PM 70.0 °F 55.9 °F 61% 29.61 in 10.0 mi Variable 3.5 mph - N/A   Overcast
4:07 PM 66.2 °F 55.4 °F 68% 29.65 in 10.0 mi Variable 6.9 mph - 0.00 in Rain , Thunderstorm Light Rain
4:22 PM 64.4 °F 57.2 °F 77% 29.65 in 8.0 mi Calm Calm - 0.01 in Rain Light Rain
4:38 PM 66.2 °F 59.0 °F 78% 29.67 in 10.0 mi Variable 3.5 mph - 0.01 in Thunderstorm Mostly Cloudy
4:53 PM 60.1 °F 55.9 °F 86% 29.66 in 1.8 mi Variable 5.8 mph - 0.14 in Rain Heavy Rain
5:07 PM 57.2 °F 57.2 °F 100% 29.67 in 2.5 mi Calm Calm - 0.05 in Rain Rain
5:19 PM 59.0 °F 57.2 °F 94% 29.66 in 9.0 mi SSE 3.5 mph - 0.06 in Rain Light Rain
5:53 PM 60.1 °F 57.9 °F 93% 29.64 in 10.0 mi Calm Calm - 0.06 in   Scattered Clouds
6:48 PM 60.8 °F 59.0 °F 94% 29.69 in 1.8 mi Calm Calm - 0.06 in Rain Heavy Rain
6:53 PM 60.1 °F 59.0 °F 96% 29.66 in 2.0 mi Calm Calm - 0.07 in Rain Light Rain
7:02 PM 60.8 °F 59.0 °F 94% 29.68 in 10.0 mi Calm Calm - 0.00 in Rain Light Rain
8:53 PM 61.0 °F 60.1 °F 97% 29.70 in 10.0 mi Calm Calm - 0.03 in   Overcast
9:53 PM 60.1 °F 60.1 °F 100% 29.73 in 3.0 mi Variable 3.5 mph - 0.06 in Rain Rain
10:53 PM 61.0 °F 57.9 °F 90% 29.73 in 10.0 mi Calm Calm - 0.03 in   Overcast
11:53 PM 60.1 °F 59.0 °F 96% 29.74 in 10.0 mi Calm Calm - N/A   Overcast